This is the latest recevied weather packets stored in our database for station/object KY4EF. If no packets are shown the sender has not sent any weather packets the latest 10 day(s).
| Time | Temp. | Humidity | Pressure | Rain* | Wind** | Luminosity | Snow |
|---|---|---|---|---|---|---|---|
| 1777727673 | 10.56° C | 73% | 1012.2 hPa | 0 mm | - | 146 W/m² | - |
| 1777727371 | 10.56° C | 73% | 1012.3 hPa | 0 mm | - | 160 W/m² | - |
| 1777727068 | 10.56° C | 74% | 1012.2 hPa | 0 mm | - | 84 W/m² | - |
| 1777726765 | 10.56° C | 73% | 1012.3 hPa | 0 mm | - | 87 W/m² | - |
| 1777726462 | 10.56° C | 72% | 1012.3 hPa | 0 mm | - | 83 W/m² | - |
| 1777726159 | 10.56° C | 74% | 1012.4 hPa | 0 mm | - | 87 W/m² | - |
| 1777725856 | 10° C | 73% | 1012 hPa | 0 mm | - | 92 W/m² | - |
| 1777725554 | 10° C | 75% | 1012.4 hPa | 0 mm | - | 68 W/m² | - |
| 1777725251 | 10° C | 74% | 1012.4 hPa | 0 mm | - | 92 W/m² | - |
| 1777724948 | 10° C | 74% | 1012.3 hPa | 0 mm | - | 70 W/m² | - |
| 1777724644 | 9.44° C | 75% | 1012.2 hPa | 0 mm | - | 89 W/m² | - |
| 1777724342 | 9.44° C | 77% | 1012.2 hPa | 0 mm | - | 81 W/m² | - |
| 1777724039 | 9.44° C | 76% | 1012.3 hPa | 0 mm | - | 78 W/m² | - |
| 1777723736 | 9.44° C | 76% | 1012.3 hPa | 0 mm | - | 75 W/m² | - |
| 1777723432 | 9.44° C | 78% | 1012.4 hPa | 0 mm | - | 62 W/m² | - |
| 1777723130 | 9.44° C | 78% | 1012 hPa | 0 mm | - | 49 W/m² | - |
| 1777722828 | 9.44° C | 77% | 1012.4 hPa | 0 mm | - | 46 W/m² | - |
| 1777722523 | 8.89° C | 77% | 1011.9 hPa | 0 mm | - | 38 W/m² | - |
| 1777722220 | 8.89° C | 78% | 1012.4 hPa | 0 mm | - | 41 W/m² | - |
| 1777721917 | 8.89° C | 82% | 1012.3 hPa | 0 mm | - | 27 W/m² | - |
| 1777721615 | 8.89° C | 80% | 1011.5 hPa | 0 mm | - | 35 W/m² | - |
| 1777721313 | 8.89° C | 80% | 1011.5 hPa | 0 mm | - | 27 W/m² | - |
| 1777721010 | 8.89° C | 80% | 1011.4 hPa | 0 mm | - | 23 W/m² | - |
| 1777720707 | 8.89° C | 80% | 1011.5 hPa | 0 mm | - | 18 W/m² | - |
| 1777720405 | 8.89° C | 79% | 1011.6 hPa | 0 mm | - | 9 W/m² | - |
* Rain latest hour (hover to see other rain measurements)
** Current wind speed in m/s (hover to see current wind gust speed)